Flag for U.S.A. Weather past 2 weeks in Palestine, Texas, U.S.A.

Now
91 °F

Scattered clouds.


Feels Like: 100 °F
Forecast: 74 / 90 °F
Wind: 6 mph from South

Location: Palestine Municipal Airport

Current Time: Jun 29, 2015 at 6:22:30 PM

Latest Report: Jun 29, 2015 at 5:55 PM


Visibility: 10 mi

Pressure: 29.95 "Hg

Humidity: 57%

Dew point: 74 °F

Location of PalestineLocation

Historic Weather in Palestine — Graph

°F

Palestine temperature yesterday

Maximum temperature yesterday: 91 °F (at 3:55 PM)
Minimum temperature yesterday: 68 °F (at 6:35 AM)
Average temperature yesterday: 80 °F

Past Weeks' High & Low Weather Summary

 TemperatureHumidityPressure
High94 °F (Jun 23, 4:15 PM)100% (Jun 15, 5:55 AM)30.20 "Hg (Jun 15, 5:55 AM)
Low68 °F (Jun 28, 6:35 AM)35% (Jun 28, 3:35 PM)29.87 "Hg (Jun 17, 4:55 AM)
Average80 °F81%30.03 "Hg
* Reported Jun 14 5:15 PM — Jun 29 5:15 PM, Palestine, Weather by CustomWeather, © 2015

Note: Actual official high and low records may vary slightly from our data, if they occured in-between our weather recording intervals... More about our weather records

Advertising

Palestine weather history for previous 24 hours

 ConditionsComfort  
Time TempWeatherWind HumidityBarometerVisibility
5:15 PM
Mon, Jun 29
92 °FSunny.10 mph52%29.95 "Hg10 mi
4:35 PM92 °FScattered clouds.9 mph54%29.96 "Hg10 mi
4:15 PM92 °FPartly sunny.12 mph55%29.97 "Hg10 mi
3:55 PM90 °FPartly sunny.7 mph57%29.97 "Hg10 mi
3:15 PM90 °FBroken clouds.8 mph60%29.98 "Hg10 mi
2:55 PM91 °FSunny.6 mph59%29.98 "Hg7 mi
2:35 PM90 °FBroken clouds.9 mph58%29.99 "Hg10 mi
2:15 PM90 °FBroken clouds.7 mph58%29.99 "Hg10 mi
1:55 PM93 °FScattered clouds.9 mph53%30.00 "Hg7 mi
1:35 PM92 °FScattered clouds.10 mph54%30.00 "Hg10 mi
1:15 PM90 °FScattered clouds.6 mph61%30.00 "Hg10 mi
12:55 PM89 °FBroken clouds.8 mph60%30.01 "Hg10 mi
12:35 PM90 °FBroken clouds.9 mph60%30.02 "Hg10 mi
12:15 PM89 °FPartly sunny.12 mph61%30.02 "Hg10 mi
11:55 AM89 °FScattered clouds.12 mph62%30.03 "Hg7 mi
11:35 AM88 °FScattered clouds.12 mph63%30.03 "Hg7 mi
11:15 AM87 °FBroken clouds.9 mph65%30.04 "Hg10 mi
10:55 AM87 °FBroken clouds.10 mph68%30.04 "Hg10 mi
10:15 AM85 °FPartly sunny.9 mph73%N/A10 mi
9:55 AM83 °FScattered clouds.7 mph77%30.04 "Hg10 mi
9:15 AM79 °FBroken clouds.5 mph89%30.05 "Hg7 mi
8:55 AM78 °FBroken clouds.5 mph90%30.05 "Hg7 mi
8:35 AM79 °FScattered clouds.7 mph89%30.04 "Hg10 mi
8:15 AM78 °FBroken clouds.6 mph92%30.03 "Hg10 mi
7:55 AM77 °FScattered clouds.5 mph96%30.03 "Hg7 mi
7:35 AM76 °FBroken clouds.3 mph98%30.03 "Hg7 mi
7:15 AM75 °FPartly cloudy.3 mph100%30.02 "Hg7 mi
6:55 AM75 °FPassing clouds.No wind100%30.02 "Hg7 mi
6:35 AM74 °FPassing clouds.No wind100%30.01 "Hg7 mi
6:15 AM74 °FPassing clouds.No wind100%30.01 "Hg7 mi
5:55 AM74 °FPassing clouds.No wind100%30.00 "Hg7 mi
5:15 AM74 °FPartly cloudy.No wind99%29.99 "Hg7 mi
4:55 AM74 °FPassing clouds.3 mph99%30.00 "Hg7 mi
4:35 AM74 °FPassing clouds.No wind97%30.00 "Hg10 mi
4:15 AM74 °FPassing clouds.No wind97%30.00 "Hg10 mi
3:55 AM74 °FClear.3 mph97%30.00 "Hg10 mi
3:15 AM74 °FPassing clouds.No wind95%30.00 "Hg10 mi
2:55 AM74 °FPassing clouds.3 mph95%30.00 "Hg10 mi
2:35 AM74 °FPassing clouds.3 mph95%30.00 "Hg10 mi
2:15 AM75 °FPassing clouds.No wind94%30.00 "Hg10 mi
1:55 AM75 °FPassing clouds.No wind94%30.00 "Hg10 mi
1:35 AM75 °FPassing clouds.No wind93%30.00 "Hg10 mi
1:15 AM75 °FPassing clouds.5 mph92%30.00 "Hg10 mi
12:55 AM75 °FClear.3 mph93%30.00 "Hg10 mi
12:35 AM75 °FClear.No wind91%30.00 "Hg10 mi
12:15 AM76 °FClear.No wind91%30.00 "Hg10 mi
11:55 PM
Sun, Jun 28
76 °FClear.3 mph90%30.00 "Hg10 mi
11:35 PM76 °FClear.No wind89%29.99 "Hg10 mi
11:15 PM76 °FClear.3 mph88%29.99 "Hg10 mi
10:55 PM77 °FClear.3 mph85%29.99 "Hg10 mi
10:15 PM77 °FPassing clouds.No wind86%29.99 "Hg10 mi
9:55 PM78 °FPassing clouds.No wind81%29.98 "Hg10 mi
9:35 PM78 °FPassing clouds.3 mph82%29.98 "Hg10 mi
9:15 PM78 °FSunny.No wind82%29.97 "Hg10 mi
7:15 PM88 °FSunny.No wind41%29.98 "Hg10 mi
6:55 PM89 °FSunny.No wind41%29.97 "Hg10 mi
6:35 PM89 °FSunny.No wind42%29.97 "Hg10 mi
6:15 PM90 °FSunny.3 mph40%29.97 "Hg10 mi
Weather by CustomWeather, © 2015

See weather overviewHow to use our weather pages